Regional Weather Roundup
Issued by NWS Northern Indiana

Home | Current Version | Previous Version | Graphics & Text | Print | Product List | Glossary On
Versions: 1 2 3 4 5 6 7 8 9 10 11 12 13 14 15 16 17 18 19 20 21 22 23 24 25 26 27 28 29 30 31 32 33 34 35 36 37 38 39 40 41 42 43 44 45 46 47 48 49 50
000
ASUS43 KIWX 281400
RWRIWX

KIWX WEATHER ROUNDUP
NATIONAL WEATHER SERVICE NORTHERN INDIANA
900 AM EST SAT FEB 28 2015

NOTE: "FAIR" INDICATES FEW OR NO CLOUDS BELOW 12,000 FEET WITH NO
SIGNIFICANT WEATHER AND/OR OBSTRUCTIONS TO VISIBILITY.

* THESE STATIONS ARE NOT UNDER NWS QUALITY CONTROL. THEY ALSO MAY NOT
  REPORT WEATHER SUCH AS PRECIPITATION OR FOG.

INZ001>027-281500-
NORTHERN INDIANA

CITY           SKY/WX    TMP DP  RH WIND       PRES   REMARKS
GARY*          MOSUNNY    3  -4  72 CALM      30.74R
KNOX*            N/A     -4 -17  54 CALM      30.73S
SOUTH BEND     MOSUNNY    0  -6  76 CALM      30.74R
ELKHART*       SUNNY     -2  -9  71 CALM      30.75R
GOSHEN         MOSUNNY   -4  -6  91 CALM      30.73R
MONTICELLO*    MOSUNNY    4  -2  76 CALM      30.72S
ANGOLA*        SUNNY     -6 -11  77 CALM      30.72R
FORT WAYNE     CLOUDY     7   3  84 CALM      30.75R
PERU/GRISSOM   CLOUDY     8   0  70 E7        30.71R WCI  -3

$$
INZ028>050-281500-
CENTRAL INDIANA

CITY           SKY/WX    TMP DP  RH WIND       PRES   REMARKS
LAFAYETTE      MOSUNNY    8   1  73 E7        30.72F WCI  -3
KOKOMO*        SUNNY      9   3  78 E7        30.73R WCI  -3
MUNCIE*        PTSUNNY    7   1  76 E6        30.71R WCI  -3
INDIANAPOLIS   CLOUDY    14   1  56 E9        30.70R WCI   2

$$
MIZ043>046-050>051-056>058-064>065-071>073-077>080-281500-
SOUTHWEST LOWER MICHIGAN

CITY           SKY/WX    TMP DP  RH WIND       PRES   REMARKS
BATTLE CREEK   MOSUNNY   -1  -5  82 SW5       30.71R WCI -11
BENTON HARBOR  MOSUNNY    1  -3  83 S6        30.74R WCI -10
COLDWATER*     MOSUNNY  -11 -16  76 CALM      30.72R
HILLSDALE*     MOSUNNY    1  -4  80 CALM      30.69R HAZE
HOLLAND        SUNNY      2  -3  80 S7        30.72R WCI -11
GRAND RAPIDS   MOSUNNY    3  -2  79 S3        30.70R
KALAMAZOO      MOSUNNY    0  -5  79 S8        30.72R WCI -14
STURGIS*       MOSUNNY    0  -6  78 CALM      30.72R
THREE RIVERS*  FAIR      -3  -8  81 SW5       30.74R WCI -14

$$
OHZ001>008-015>018-024>025-281500-
NORTHWEST OHIO

CITY           SKY/WX    TMP DP  RH WIND       PRES   REMARKS
DEFIANCE       MOSUNNY    1  -4  79 CALM      30.76R
FINDLAY        SUNNY      4  -5  66 S5        30.75R WCI  -5
TOLEDO EXPRESS MOSUNNY   -1  -5  82 CALM      30.76R
TOLEDO METCALF MOSUNNY    2  -5  72 S3        30.78R
LIMA           MOSUNNY   10  -2  58 SE6       30.73R WCI   0

$$
AND FOR LAKE MICHIGAN COASTAL AND OPEN LAKE BUOY OBSERVATIONS

STATION/POSITION TEMP    WIND        PRES    VSBY  WAVE
                 AIR SEA DIR/SP/G                  HT/PER
                 (F)     (DEG/KT/KT) (MB)    (MI)  (FT/S)
CALUMET HARBOR     4     180/  3/  3 1039.0R
MICHIGAN CITY      1     140/  5/  6   N/A
SAINT JOSEPH       6     150/  5/  9 1041.0R

$$
&&



USA.gov is the U.S. government's official web portal to all federal, state and local government web resources and services.